FENGYUN 1C DEB, 37478

Orbit data source: Space-Track

FENGYUN 1C DEB, 37478 is space debris in SSO originally from a launch on Mon, 10 May 1999 UTC launched from the Taiyaun Space Center, China (TSC). Fengyun 1C debris stems from the Chinese weather satellite Fengyun-1C, which was intentionally destroyed by a Chinese anti-satellite missile in 2007. This event dramatically increased the amount of space debris, with thousands of trackable fragments posing hazards to satellites and human spaceflight. The Fengyun 1C debris cloud has become a focal point in discussions about space sustainability and the need for international regulations to prevent the creation of new debris.

Loading next visibility...
Identifier
37478, 1999-025EJY
Orbit
SSO
Country
Flag of CNCN / PRC
Related business
Manufacturer
Unknown
Mission
Spacecraft
Bus & Motor
Unknown
Mass
Unknown
Launch date (UTC)
1999-05-10 (27 years ago)
Launch vehicle
Unknown
Launch site
Taiyaun Space Center, China (TSC)
Object type
Payload
Rocket body
Debris
Shape & HBR
Unknown shape, 0.1 m
Radar Cross Section
Medium (>0.1 m² and <1 m²)

Expand to show TLE details & history
Last TLE update: 2 weeks ago

TLE from 2 weeks ago
0 FENGYUN 1C DEB
1 37478U 99025EJY 26144.15199210  .00000794  00000-0  13085-2 0  9998
2 37478  99.6577 115.0255 0542448 305.5682  49.6005 13.03520907586776
Epoch: 2026-05-24T03:38Z
TLE epoch observation values (Epoch: 2026-05-24T03:38:52.117Z)
Latitude
-0.00007°
Longitude
178.55011°
Altitude
996.617 km
Speed
7.475 km/s
True Right ascension
07h 40m 06s
True Declination
0° 00' 00"
Sunlit
Object was in daylight at epoch
Visualization orbit readout
Latitude
Unknown
Longitude
Unknown
Altitude
Unknown
Speed
Unknown
Apparent Right ascension
Unknown
Apparent Declination
Unknown
Sunlit
N/A
Visualization observer readout
Local Sidereal Time
20:48:15
Azimuth
Unknown
Elevation
Unknown
Doppler factor
Unknown
Orbital elements
Apogee altitude
1,659.228 km
Perigee altitude
832.124 km
Semi-major axis
7,623.813 km
Eccentricity
0.05424
Inclination
99.6577°
RAAN
115.0255°
Arg. of periapsis
305.5682°
True anomaly
54.54524°
Mean anomaly
49.6005°
Eccentric anomaly
52.05135°
Mean motion
3.2605 °/min
Orbital period
110.41 mins
BSTAR
0.0013085
Loading maneuver chart data...
Computing Atmospheric mass density...
Loading historical data...
Loading historical data...
Loading historical data...
Loading historical data...
Loading historical data...
Loading historical data...
Loading historical data...

Documentation

Showing up to 5 results
|